Date,TemperatureHighF,TemperatureAvgF,TemperatureLowF,DewpointHighF,DewpointAvgF,DewpointLowF,HumidityHigh,HumidityAvg,HumidityLow,PressureMaxIn,PressureMinIn,WindSpeedMaxMPH,WindSpeedAvgMPH,GustSpeedMaxMPH,PrecipitationSumIn
2013-1-1,20.1,13.7,4.6,17.5,9.3,4.2,98,83,57,30.26,30.08,8,4,0,0.00
2013-1-2,33.6,25.0,15.3,31.3,23.0,14.2,98,92,77,30.15,29.99,8,4,0,0.00
2013-1-3,30.7,25.1,15.3,30.2,23.1,14.8,98,92,73,30.33,30.15,15,4,0,0.00
2013-1-4,36.5,24.6,14.7,27.0,21.7,14.2,98,89,65,30.27,30.08,11,5,0,0.00
2013-1-5,41.9,31.5,23.2,37.4,28.8,20.8,98,90,71,30.14,29.90,17,6,0,0.00
2013-1-6,39.9,27.6,15.4,29.0,22.8,14.9,98,83,59,30.28,30.09,14,6,0,0.00
2013-1-7,48.4,36.5,27.9,33.5,29.1,24.0,98,76,54,30.09,29.88,19,7,0,0.00
2013-1-8,50.5,38.8,30.4,38.8,33.8,29.0,98,83,61,30.07,29.76,12,6,0,0.00
2013-1-9,50.7,39.1,28.4,39.0,33.5,27.9,98,82,64,30.36,30.07,8,3,0,0.00
2013-1-10,39.6,38.0,34.5,38.7,35.1,28.4,98,90,65,30.27,29.61,12,4,0,0.19
2013-1-11,55.9,46.8,30.2,55.3,29.2,-53.6,98,73,4,29.66,29.31,19,9,0,0.01
2013-1-12,31.8,21.4,13.5,31.3,15.0,8.6,98,77,58,30.05,29.68,18,7,0,0.00
2013-1-13,23.2,14.2,7.7,9.6,7.3,4.4,89,75,49,30.29,30.05,10,5,0,0.00
2013-1-14,29.3,15.8,7.2,17.4,10.4,5.5,98,80,54,30.42,30.29,7,3,0,0.00
2013-1-15,31.8,20.4,14.9,19.6,14.0,10.7,86,76,57,30.32,30.19,8,3,0,0.00
2013-1-16,52.9,44.3,36.1,40.2,36.2,33.8,98,74,60,30.15,29.88,14,6,0,0.00
2013-1-17,43.7,33.0,23.2,36.6,31.3,22.7,98,94,76,30.43,30.16,6,3,0,0.00
2013-1-18,57.6,42.6,30.6,38.6,34.6,30.1,98,76,46,30.26,29.86,17,8,0,0.00
2013-1-19,58.5,40.4,26.4,37.0,32.5,19.3,98,76,40,30.26,29.82,17,7,0,0.00
2013-1-20,25.7,19.4,13.1,18.9,12.0,8.8,90,73,53,30.38,30.27,11,6,0,0.00
2013-1-21,14.9,12.5,10.6,13.5,2.1,-3.3,98,64,48,30.42,30.32,14,6,0,0.00
2013-1-22,24.6,16.5,9.5,12.5,8.6,0.4,91,71,57,30.36,30.21,7,2,0,0.00
2013-1-23,35.1,22.2,12.9,23.6,15.2,6.0,87,75,61,30.46,30.12,17,7,0,0.00
2013-1-24,21.6,12.3,1.8,10.6,2.4,-3.8,80,65,51,30.53,30.13,14,6,0,0.00
2013-1-25,49.6,32.6,17.1,30.6,20.8,10.1,83,63,44,30.19,30.06,11,4,0,0.00
2013-1-26,47.8,33.0,17.6,32.4,26.1,17.1,98,78,54,30.22,29.97,13,6,0,0.00
2013-1-27,49.1,41.2,35.6,48.6,38.1,25.8,98,90,41,29.96,29.61,12,6,0,0.35
2013-1-28,59.4,43.3,33.8,58.8,31.1,-47.3,98,69,1,29.81,29.44,11,4,0,0.00
2013-1-29,59.5,36.2,31.3,58.9,35.7,30.8,98,98,98,29.62,29.44,19,8,0,0.02
2013-1-30,31.1,23.1,13.3,30.6,22.5,12.8,98,98,89,29.89,29.51,23,11,0,0.00
2013-1-31,16.7,9.4,-2.2,16.2,5.0,-4.4,98,82,66,30.41,29.89,19,7,0,0.00
2013-2-1,26.1,13.0,-2.6,24.1,10.1,-4.8,98,88,73,30.41,30.01,21,6,0,0.00
2013-2-2,39.2,31.5,25.2,38.7,30.2,22.7,98,95,82,30.13,29.97,10,4,0,0.00
2013-2-3,43.0,35.3,24.8,36.2,30.3,21.8,98,82,67,30.18,29.74,15,6,0,0.00
2013-2-4,37.8,29.7,23.0,34.6,28.5,22.5,98,95,85,29.94,29.69,20,6,0,0.00
2013-2-5,50.7,37.1,25.2,41.0,32.6,24.7,98,85,62,30.01,29.79,11,4,0,0.00
2013-2-6,59.4,44.4,32.5,48.4,40.5,32.0,98,87,59,30.00,29.74,15,7,0,0.02
2013-2-7,46.9,37.2,29.7,46.4,36.7,29.2,98,98,98,30.17,29.76,20,9,0,0.02
2013-2-8,36.3,29.8,25.5,35.8,29.3,25.0,98,98,98,30.26,30.08,10,5,0,0.00
2013-2-9,49.6,37.8,28.9,45.2,36.3,28.4,98,95,82,30.12,29.61,19,10,0,0.00
2013-2-10,47.1,40.3,33.8,46.6,39.2,30.6,98,96,81,29.62,29.22,21,11,0,0.00
2013-2-11,41.4,33.6,25.5,32.5,29.3,25.0,98,85,69,30.11,29.81,17,6,0,0.00
2013-2-12,51.1,34.9,20.1,35.2,27.2,19.6,98,77,43,30.11,29.84,9,4,0,0.00
2013-2-13,55.2,39.7,25.9,37.9,31.4,24.9,98,75,44,29.86,29.66,7,3,0,0.00
2013-2-14,48.0,39.9,27.1,39.5,33.5,20.6,98,79,50,30.19,29.72,27,8,0,0.00
2013-2-15,34.3,24.7,12.2,28.1,20.7,11.7,98,86,60,30.32,30.20,14,5,0,0.00
2013-2-16,32.4,24.0,11.3,31.1,23.2,10.8,98,97,88,30.28,29.95,10,5,0,0.00
2013-2-17,55.9,39.9,24.6,43.6,34.4,24.1,98,82,60,29.95,29.49,16,7,0,0.00
2013-2-18,45.0,35.1,21.6,40.1,33.3,21.0,98,93,79,30.02,29.44,24,9,0,0.00
2013-2-19,21.4,16.6,11.5,20.9,13.7,8.9,98,88,71,30.27,30.02,14,8,0,0.00
2013-2-20,25.0,16.2,5.5,14.1,8.9,2.8,90,73,57,30.34,30.15,11,6,0,0.00
2013-2-21,24.6,21.3,19.2,24.1,18.1,13.1,98,88,67,30.18,29.74,18,9,0,0.00
2013-2-22,33.1,20.6,10.6,30.8,19.1,-57.4,98,97,1,29.99,29.74,10,4,0,0.00
2013-2-23,37.2,21.4,3.6,33.1,19.8,3.2,98,94,79,29.98,29.79,12,6,0,0.02
2013-2-24,45.7,31.7,17.1,35.4,28.8,16.6,98,90,65,29.98,29.85,8,4,0,0.09
2013-2-25,38.5,33.2,29.8,38.0,32.7,29.3,98,98,98,29.99,29.78,15,8,0,0.00
2013-2-26,33.3,30.4,27.7,32.8,29.9,27.2,98,98,98,29.83,29.65,16,11,0,0.00
2013-2-27,40.5,31.8,25.7,35.2,29.7,25.2,98,93,76,30.02,29.80,19,10,0,0.00
2013-2-28,34.2,29.0,25.9,33.7,28.5,25.4,98,98,96,30.17,30.03,20,9,0,0.00
2013-3-1,30.0,26.4,23.7,29.2,25.4,21.2,98,96,85,30.30,30.16,16,9,0,0.00
2013-3-2,36.3,28.4,20.5,31.1,25.1,20.0,98,88,71,30.31,30.06,10,5,0,0.00
2013-3-3,44.4,34.1,26.1,38.7,31.8,25.6,98,92,78,30.06,29.67,14,8,0,0.00
2013-3-4,46.4,37.3,31.8,41.2,35.7,31.3,98,94,81,29.95,29.57,13,7,0,0.00
2013-3-5,34.2,29.0,23.9,33.7,25.1,20.6,98,86,74,30.33,29.95,23,11,0,0.00
2013-3-6,40.3,29.7,22.3,30.8,26.1,21.6,98,87,65,30.38,30.20,13,6,0,0.00
2013-3-7,52.3,35.5,22.6,38.4,30.8,22.1,98,85,54,30.22,30.02,16,8,0,0.00
2013-3-8,58.8,43.8,31.5,48.2,39.7,31.0,98,86,65,30.13,29.84,15,8,0,0.02
2013-3-9,54.5,48.5,40.3,53.9,48.0,39.8,98,98,98,29.84,29.46,20,9,0,0.10
2013-3-10,39.7,30.3,23.5,39.2,29.8,23.0,98,98,98,29.86,29.57,25,14,0,0.00
2013-3-11,34.2,25.4,19.6,32.2,24.6,19.1,98,97,85,29.94,29.81,16,6,0,0.00
2013-3-12,40.3,31.0,24.6,34.6,28.8,24.1,98,92,79,30.29,29.94,16,7,0,0.00
2013-3-13,41.2,30.3,19.0,29.4,25.0,18.5,98,83,52,30.38,30.21,9,4,0,0.00
2013-3-14,65.7,47.2,33.4,51.2,40.9,29.3,98,80,59,30.21,29.94,14,6,0,0.00
2013-3-15,73.2,53.0,38.1,55.8,46.7,37.6,98,82,51,30.01,29.57,12,6,0,0.00
2013-3-16,42.8,34.6,29.5,42.3,34.1,29.0,98,98,91,30.11,29.74,18,11,0,0.00
2013-3-17,48.2,34.4,24.6,40.3,32.0,24.1,98,91,71,30.10,29.69,14,8,0,0.00
2013-3-18,46.6,37.2,29.5,37.8,30.5,21.3,98,79,49,30.00,29.67,20,8,0,0.12
2013-3-19,52.0,35.7,25.7,45.5,28.4,21.1,98,76,43,30.24,30.00,14,4,0,0.03
2013-3-20,38.3,26.9,17.1,26.4,15.6,11.3,98,65,36,30.35,30.05,20,8,0,0.00
2013-3-21,35.2,27.1,20.3,22.3,18.8,15.3,85,72,51,30.05,29.83,10,5,0,0.00
2013-3-22,37.4,32.5,28.2,26.8,24.9,21.3,85,74,62,29.96,29.87,9,4,0,0.00
2013-3-23,39.4,31.9,28.2,34.9,29.7,26.6,98,92,76,30.04,29.93,19,7,0,0.00
2013-3-24,30.6,26.9,22.6,30.1,26.2,22.1,98,97,88,30.03,29.92,20,12,0,0.00
2013-3-25,31.3,27.4,23.0,30.8,26.8,22.5,98,98,89,30.29,30.01,19,9,0,0.00
2013-3-26,41.5,29.3,17.2,32.9,25.6,16.7,98,87,67,30.32,30.17,8,4,0,0.00
2013-3-27,55.2,37.9,25.3,44.4,33.7,24.8,98,86,62,30.23,30.10,14,6,0,0.00
2013-3-28,64.2,46.0,26.6,45.5,38.2,26.1,98,78,45,30.20,30.04,11,3,0,0.00
2013-3-29,70.7,54.3,32.2,50.9,41.0,31.7,98,66,30,30.15,29.97,14,6,0,0.00
2013-3-30,68.9,52.7,45.1,66.0,49.6,42.9,98,90,61,30.03,29.77,11,5,0,0.45
2013-3-31,50.9,46.4,41.7,49.7,45.8,41.2,98,98,94,29.90,29.81,11,5,0,0.00
2013-4-1,42.8,36.1,28.8,28.9,22.2,15.8,88,59,36,30.27,30.18,17,7,0,0.00
2013-4-2,52.9,38.9,22.8,33.3,28.3,22.3,98,69,43,30.27,30.15,8,3,0,0.00
2013-4-3,53.6,41.6,29.1,35.6,31.4,27.4,98,69,47,30.31,30.16,12,5,0,0.00
2013-4-4,67.3,50.2,30.0,48.4,40.8,29.5,98,72,49,30.18,29.95,7,4,0,0.00
2013-4-5,71.4,53.5,33.6,51.1,43.7,33.1,98,73,44,30.11,29.64,18,8,0,0.00
2013-4-6,74.7,62.3,54.3,58.7,51.6,47.2,98,69,47,29.71,29.43,18,8,0,0.00
2013-4-7,78.6,60.7,44.4,60.2,49.7,43.7,98,72,35,29.79,29.53,17,6,0,0.48
2013-4-8,70.5,59.0,48.0,69.9,58.5,47.5,98,98,98,29.64,29.55,9,4,0,0.01
2013-4-9,70.0,53.9,36.5,69.4,53.4,36.0,98,98,98,29.84,29.49,20,10,0,0.32
2013-4-10,40.5,37.5,33.6,40.0,37.0,33.1,98,98,98,29.90,29.74,15,6,0,0.97
2013-4-11,39.4,33.8,30.9,38.9,33.3,30.4,98,98,98,29.75,29.60,11,4,0,0.00
2013-4-12,48.4,37.8,32.2,46.6,36.7,31.7,98,96,83,29.97,29.68,12,6,0,0.00
2013-4-13,57.4,44.1,28.0,52.7,42.6,27.5,98,95,83,29.99,29.57,16,7,0,0.00
2013-4-14,72.7,57.6,45.7,68.8,52.2,38.6,98,84,49,29.62,29.24,21,8,0,0.00
2013-4-15,47.8,42.8,37.2,39.0,35.7,31.9,98,76,63,30.00,29.62,14,6,0,0.00
2013-4-16,49.5,42.4,33.8,42.5,38.5,33.3,98,87,66,30.17,29.99,16,8,0,0.00
2013-4-17,46.0,43.4,39.2,45.4,42.8,38.7,98,98,89,30.08,29.61,20,7,0,2.90
2013-4-18,38.7,35.4,32.4,38.2,34.9,31.9,98,98,98,29.87,29.60,24,12,0,0.34
2013-4-19,51.8,39.2,29.3,37.3,31.5,28.4,98,77,45,30.06,29.74,17,8,0,0.00
2013-4-20,51.8,40.8,27.3,38.3,33.2,26.8,98,77,49,30.19,30.06,14,6,0,0.00
2013-4-21,69.6,56.5,44.2,55.3,48.1,37.0,98,75,54,30.12,29.94,21,10,0,0.00
2013-4-22,62.4,49.3,35.1,61.5,48.7,34.6,98,98,91,30.13,29.84,23,7,0,0.66
2013-4-23,41.2,34.5,30.4,38.3,29.1,21.9,98,83,49,30.18,29.91,24,13,0,0.01
2013-4-24,59.5,42.6,24.3,34.8,27.0,21.4,90,58,31,29.99,29.81,14,5,0,0.00
2013-4-25,70.0,53.2,34.2,39.6,32.9,28.0,84,50,25,30.01,29.80,16,6,0,0.00
2013-4-26,66.2,56.1,49.1,49.4,43.8,36.6,88,64,51,29.99,29.82,18,10,0,0.00
2013-4-27,68.2,55.1,49.1,48.9,47.2,44.7,93,76,50,29.98,29.75,9,3,0,0.00
2013-4-28,80.6,63.0,45.5,54.7,49.7,44.7,99,67,33,29.76,29.51,17,8,0,0.00
2013-4-29,85.5,70.5,54.1,61.5,55.7,53.2,98,64,34,29.59,29.38,14,6,0,0.00
2013-4-30,86.9,73.9,60.3,60.5,53.5,45.7,72,50,38,29.78,29.43,14,8,0,0.00
2013-5-1,59.7,46.6,35.2,47.8,39.5,34.4,99,77,63,30.31,29.79,27,17,0,0.43
2013-5-2,44.6,36.0,31.8,34.1,23.6,-99.9,99,73,50,30.44,29.10,32,-42,12,0.41
2013-5-3,44.4,39.7,32.4,34.0,30.2,27.8,89,69,55,30.28,29.87,20,12,0,0.00
2013-5-4,45.1,39.7,34.9,42.6,38.3,32.6,99,95,82,30.01,29.82,24,14,0,0.03
2013-5-5,52.9,46.7,41.5,49.1,45.0,41.2,99,94,85,30.05,29.97,9,6,0,0.02
2013-5-6,66.2,55.0,48.6,54.8,50.7,48.3,99,87,64,30.02,29.89,10,5,0,0.00
2013-5-7,75.2,62.6,45.1,55.8,51.3,44.8,99,70,43,29.94,29.79,9,3,0,0.00
2013-5-8,73.9,64.3,56.1,61.6,56.1,50.1,97,76,58,29.85,29.73,9,4,0,0.05
2013-5-9,70.7,62.1,57.4,59.2,56.7,53.9,95,83,59,29.85,29.69,13,6,0,0.01
2013-5-10,72.9,59.6,50.4,54.7,48.2,43.3,92,69,37,29.96,29.85,19,8,0,0.00
2013-5-11,64.6,56.5,45.9,46.2,31.8,21.9,80,42,21,30.15,29.92,26,10,0,0.00
2013-5-12,71.4,54.2,36.9,32.8,27.5,22.3,64,38,20,30.18,29.99,7,3,0,0.00
2013-5-13,82.6,66.1,46.6,54.2,44.2,32.5,76,48,25,30.01,29.71,17,8,0,0.00
2013-5-14,97.5,80.0,58.8,59.5,54.3,48.7,82,46,20,29.71,29.51,20,6,0,0.00
2013-5-15,84.2,75.9,68.2,62.5,53.6,46.4,79,47,34,29.76,29.62,16,5,0,0.00
2013-5-16,84.4,74.2,62.4,66.5,61.5,57.9,96,67,44,29.76,29.63,11,5,0,0.00
2013-5-17,85.1,73.4,59.4,64.9,60.9,58.3,98,67,44,29.80,29.71,10,5,0,0.00
2013-5-18,83.8,75.3,60.1,68.4,64.2,58.6,95,70,56,29.82,29.61,14,6,0,0.00
2013-5-19,82.8,65.9,59.0,68.7,61.8,57.7,99,88,48,29.74,29.40,16,6,0,2.36
2013-5-20,75.6,66.1,55.8,61.7,58.4,50.5,99,78,56,29.63,29.49,11,5,0,0.00
2013-5-21,71.1,63.2,54.9,55.6,51.2,48.2,92,66,47,29.69,29.57,9,4,0,0.00
2013-5-22,63.1,57.3,51.4,51.7,49.4,48.0,88,76,63,29.93,29.69,10,5,0,0.00
2013-5-23,73.0,60.3,52.7,54.1,49.3,44.9,88,69,40,30.19,29.93,14,6,0,0.00
2013-5-24,73.9,63.3,47.7,53.6,49.2,46.3,95,63,39,30.26,30.01,14,6,0,0.00
2013-5-25,84.4,72.1,61.2,69.0,60.8,47.1,98,69,55,30.09,29.90,17,6,0,0.12
2013-5-26,86.5,75.6,65.5,71.4,67.1,62.8,96,76,60,29.95,29.78,15,7,0,0.05
2013-5-27,79.2,68.6,59.9,68.8,64.3,59.5,99,87,63,29.86,29.51,17,8,0,2.91
2013-5-28,78.8,69.1,62.8,72.6,65.8,59.4,99,90,77,29.67,29.54,14,4,0,0.01
2013-5-29,77.2,69.5,61.9,72.4,66.0,60.2,99,89,79,29.68,29.49,24,8,0,1.41
2013-5-30,74.7,65.4,61.2,64.6,59.3,-99.9,99,84,64,29.98,29.50,12,-7,0,4.05
2013-5-31,81.9,70.1,58.1,60.9,56.3,49.1,99,65,40,30.02,29.91,10,4,0,0.00
2013-6-1,67.5,60.5,54.1,55.8,51.4,47.9,84,72,59,30.25,29.96,14,5,0,0.00
2013-6-2,67.6,58.1,52.0,50.4,47.3,44.7,88,68,46,30.31,30.15,10,5,0,0.00
2013-6-3,75.7,63.7,48.4,55.4,51.3,46.8,94,66,45,30.17,29.92,14,6,0,0.00
2013-6-4,75.6,67.7,59.7,66.7,61.0,55.2,86,79,73,30.04,29.95,11,4,0,0.00
2013-6-5,72.5,65.1,57.7,65.7,57.8,50.7,99,79,51,30.10,30.01,12,5,0,0.03
2013-6-6,72.5,62.9,50.4,56.6,52.9,49.1,96,71,55,30.06,30.00,9,4,0,0.00
2013-6-7,76.8,68.3,59.0,55.4,52.1,49.8,75,57,43,30.05,29.94,9,3,0,0.00
2013-6-8,75.7,64.9,54.5,65.2,57.1,50.3,99,78,55,29.96,29.71,18,7,0,2.46
2013-6-9,74.5,65.6,59.2,62.1,59.7,57.5,99,82,62,29.89,29.79,10,5,0,0.04
2013-6-10,81.3,68.3,53.8,69.3,61.8,53.5,99,81,58,29.97,29.84,7,3,0,0.00
2013-6-11,88.7,77.4,67.8,70.0,65.6,62.8,89,69,43,29.90,29.74,20,8,0,0.00
2013-6-12,91.2,80.6,64.8,73.7,67.1,55.3,87,65,49,30.11,29.73,19,7,0,0.00
2013-6-13,80.8,68.9,57.6,63.7,57.8,53.5,93,69,44,30.18,30.04,8,3,0,0.03
2013-6-14,88.9,75.2,62.1,72.6,66.4,58.7,97,76,57,30.10,29.86,22,7,0,0.00
2013-6-15,87.3,73.5,66.2,73.2,67.2,62.6,99,82,54,30.04,29.90,10,3,0,0.11
2013-6-16,87.6,73.7,63.9,72.9,68.2,63.6,99,84,56,30.05,29.97,7,3,0,0.00
2013-6-17,88.9,77.5,66.7,72.0,63.4,55.2,99,67,32,30.06,29.98,12,3,0,0.00
2013-6-18,88.9,74.6,64.4,65.3,59.9,55.2,77,61,39,30.13,30.02,9,2,0,0.00
2013-6-19,87.6,76.5,64.2,69.1,64.0,60.5,92,67,42,30.07,29.95,13,5,0,0.00
2013-6-20,90.3,80.5,68.4,73.5,69.8,65.0,89,71,56,30.00,29.85,19,8,0,0.00
2013-6-21,94.8,84.1,76.5,75.1,72.4,69.5,86,69,50,29.93,29.85,15,9,0,0.00
2013-6-22,91.4,83.1,73.0,74.6,70.2,66.0,88,66,50,30.01,29.82,16,6,0,0.00
2013-6-23,83.7,74.7,63.3,75.8,70.0,62.7,99,86,73,29.98,29.81,16,6,0,1.27
2013-6-24,85.3,75.9,71.1,76.1,71.0,67.7,99,85,70,30.01,29.76,17,5,0,0.39
2013-6-25,88.9,79.8,71.2,75.6,71.2,64.5,89,75,62,29.83,29.70,18,6,0,0.00
2013-6-26,92.5,82.6,72.5,75.7,70.4,61.4,99,69,46,29.94,29.70,7,3,0,0.00
2013-6-27,82.2,72.4,68.2,74.6,68.8,64.5,97,89,69,30.08,29.94,14,2,0,0.42
2013-6-28,86.5,77.0,65.1,69.5,62.8,56.6,99,64,40,30.03,29.93,14,6,0,0.00
2013-6-29,81.3,72.8,63.7,62.3,58.1,55.6,82,61,45,29.99,29.91,21,8,0,0.00
2013-6-30,79.3,69.5,59.4,60.6,56.1,51.2,90,64,44,30.14,29.99,15,5,0,0.00
2013-7-1,82.8,70.6,56.1,58.3,53.8,50.0,85,58,34,30.22,30.13,12,3,0,0.00
2013-7-2,84.0,72.1,58.1,64.1,57.4,52.5,85,62,36,30.20,30.07,5,1,0,0.00
2013-7-3,88.2,71.8,59.9,63.7,59.0,54.7,93,67,38,30.10,29.98,6,2,0,0.00
2013-7-4,90.9,74.9,56.7,62.3,57.9,53.0,91,59,36,30.04,29.93,9,4,0,0.00
2013-7-5,91.8,78.3,64.9,68.8,63.1,57.1,78,60,45,29.97,29.86,10,5,0,0.00
2013-7-6,88.7,76.5,67.6,68.9,64.4,61.0,80,67,49,29.92,29.84,14,7,0,0.00
2013-7-7,98.4,84.0,70.9,72.2,67.3,61.9,79,59,40,29.93,29.85,12,6,0,0.00
2013-7-8,96.4,83.4,77.4,77.8,69.9,65.9,80,64,48,30.00,29.93,10,4,0,0.00
2013-7-9,107.6,87.6,74.3,79.3,74.7,67.8,93,69,38,29.99,29.87,12,4,0,0.33
2013-7-10,93.9,81.3,69.3,75.9,68.5,63.5,91,67,42,30.11,29.94,12,4,0,0.00
2013-7-11,93.9,73.5,61.5,65.1,62.4,58.9,96,71,39,30.14,29.99,7,3,0,0.00
2013-7-12,94.5,78.0,65.1,73.3,65.1,60.1,85,66,48,30.04,29.94,12,6,0,0.00
2013-7-13,91.6,78.3,66.2,74.7,67.0,59.6,91,69,56,30.02,29.94,12,6,0,0.46
2013-7-14,93.2,78.4,66.4,67.6,64.6,61.9,94,66,40,30.17,30.00,11,4,0,0.03
2013-7-15,95.4,78.9,63.5,72.8,67.2,60.6,95,70,45,30.22,30.13,8,2,0,0.00
2013-7-16,102.2,84.4,66.9,72.4,69.1,65.1,96,64,37,30.29,30.20,6,2,0,0.00
2013-7-17,102.2,85.7,71.4,75.4,71.6,69.3,94,66,38,30.34,30.19,7,3,0,0.00
2013-7-18,100.8,85.5,71.2,73.6,69.2,66.7,88,62,37,30.21,29.97,12,4,0,0.00
2013-7-19,107.6,86.8,71.8,75.5,70.1,64.2,82,60,35,29.98,29.87,7,2,0,0.00
2013-7-20,89.8,78.3,67.8,72.6,67.3,63.4,88,70,52,30.00,29.87,7,2,0,0.00
2013-7-21,99.9,81.5,68.0,73.9,70.7,67.4,98,73,42,29.93,29.79,8,3,0,0.00
2013-7-22,100.4,83.8,69.8,78.1,73.4,69.2,99,73,44,29.85,29.74,7,3,0,0.00
2013-7-23,84.7,73.7,64.9,72.9,65.8,61.8,94,78,52,30.00,29.83,16,4,0,0.00
2013-7-24,89.6,75.4,59.0,66.0,62.8,58.7,99,68,43,30.10,30.00,10,3,0,0.00
2013-7-25,86.5,72.8,66.4,70.5,64.9,60.0,96,77,54,30.08,30.01,9,3,0,0.00
2013-7-26,84.2,73.1,59.9,69.7,61.2,51.8,99,70,35,30.13,29.99,16,5,0,0.00
2013-7-27,81.5,66.9,53.4,57.3,50.7,46.7,96,61,32,30.17,30.03,14,4,0,0.00
2013-7-28,84.9,63.6,52.0,56.0,50.6,48.2,91,67,31,30.10,30.05,6,1,0,0.00
2013-7-30,78.8,74.4,69.6,70.1,68.3,66.4,90,82,73,30.12,30.05,8,3,0,0.00
2013-7-31,91.9,75.7,63.3,70.0,66.8,63.0,99,77,46,30.17,30.07,6,2,0,0.00
2013-8-1,96.3,76.0,64.8,71.8,67.1,64.1,99,79,35,30.12,29.89,19,3,0,0.56
2013-8-2,90.7,76.3,65.8,70.8,67.3,63.8,94,76,51,30.01,29.80,22,4,0,0.01
2013-8-3,87.3,73.7,63.0,66.3,63.0,60.0,95,71,49,30.20,30.02,12,4,0,0.00
2013-8-4,80.2,70.3,62.4,67.3,62.9,57.9,94,78,59,30.19,30.04,12,3,0,0.00
2013-8-5,91.8,78.3,67.5,74.6,71.4,66.4,99,81,56,30.06,29.85,9,3,0,0.00
2013-8-6,94.8,80.1,66.7,77.6,72.8,66.4,99,81,53,29.92,29.80,10,3,0,0.00
2013-8-7,93.4,78.4,69.4,72.9,67.3,60.1,99,72,37,30.01,29.82,10,4,0,0.00
2013-8-8,81.1,70.4,61.7,67.8,64.7,61.3,99,83,62,30.04,29.97,6,2,0,0.00
2013-8-9,89.8,74.9,65.8,69.4,65.6,60.0,99,76,49,30.16,30.03,7,3,0,0.00
2013-8-10,90.5,74.3,58.8,64.6,61.1,58.4,99,67,39,30.24,30.11,7,3,0,0.00
2013-8-11,93.2,77.6,62.6,71.9,66.2,60.4,94,70,47,30.15,30.01,7,4,0,0.00
2013-8-12,91.4,77.1,68.0,72.2,68.6,63.2,99,77,52,30.08,30.00,11,3,0,0.09
2013-8-13,86.4,73.5,63.0,63.3,60.4,56.3,94,67,38,30.19,30.08,10,2,0,0.00
2013-8-14,85.1,69.1,54.5,62.3,58.7,54.2,99,72,39,30.22,30.10,6,2,0,0.00
2013-8-15,71.4,63.2,59.2,62.8,60.2,58.5,99,91,72,30.14,30.04,8,4,0,1.12
2013-8-16,80.1,68.0,61.0,62.8,60.4,58.2,99,79,50,30.20,30.11,7,2,0,0.00
2013-8-17,85.8,71.3,58.3,63.1,59.0,56.5,98,68,40,30.23,30.13,7,2,0,0.00
2013-8-18,85.6,70.6,53.8,65.1,60.6,53.5,99,74,47,30.19,30.07,9,2,0,0.00
2013-8-19,87.6,74.3,63.1,70.5,66.1,61.4,95,77,56,30.11,29.97,11,5,0,0.00
2013-8-20,93.2,79.0,67.8,73.5,69.3,66.0,94,74,50,30.02,29.94,9,5,0,0.00
2013-8-21,95.2,80.1,68.7,75.1,70.5,66.0,92,75,46,30.04,29.96,10,5,0,0.00
2013-8-22,92.7,77.3,69.3,73.1,71.0,68.6,99,83,51,30.10,30.00,7,2,0,0.00
2013-8-23,93.6,79.6,67.5,74.7,71.2,67.2,99,78,48,30.10,30.00,10,3,0,0.00
2013-8-24,93.9,81.2,72.1,75.6,71.7,68.5,90,74,53,30.11,30.03,14,6,0,0.00
2013-8-25,97.9,82.7,71.1,76.0,72.9,69.3,94,74,49,30.17,30.08,11,6,0,0.00
2013-8-26,99.1,83.8,72.1,75.1,72.1,69.7,93,71,44,30.12,29.99,10,5,0,0.00
2013-8-27,101.7,84.5,71.8,74.1,70.0,65.2,88,64,39,30.01,29.92,9,4,0,0.00
2013-8-28,101.3,83.5,68.2,73.2,67.9,62.8,89,62,31,30.03,29.96,10,4,0,0.00
2013-8-29,99.0,83.9,71.1,76.7,73.4,69.5,96,73,48,30.03,29.92,10,4,0,0.00
2013-8-30,110.3,88.8,72.1,76.7,71.1,67.0,87,61,28,29.93,29.81,6,3,0,0.00
2013-8-31,97.7,80.9,72.1,76.7,73.5,68.5,99,81,39,29.90,29.79,7,2,0,0.00
2013-9-1,85.8,75.1,66.2,72.6,65.5,58.5,99,76,41,30.01,29.75,17,5,0,2.04
2013-9-2,89.8,71.6,59.2,62.7,58.7,52.1,99,68,29,30.12,30.01,8,2,0,0.00
2013-9-3,91.4,72.6,54.1,63.9,60.2,53.8,99,69,38,30.13,30.04,6,2,0,0.00
2013-9-4,92.5,74.5,63.1,69.7,63.6,59.8,90,71,44,30.20,30.06,7,3,0,0.00
2013-9-5,92.1,75.1,65.1,69.1,64.8,60.7,99,73,41,30.23,30.11,8,2,0,0.02
2013-9-6,91.2,78.5,63.9,72.8,67.4,60.2,92,70,53,30.12,29.94,11,5,0,0.00
2013-9-7,106.5,82.4,70.3,76.1,70.6,66.3,94,70,36,29.95,29.83,10,4,0,0.00
2013-9-8,97.9,81.4,69.3,76.6,73.0,69.0,99,78,45,29.92,29.79,6,2,0,0.00
2013-9-9,100.6,84.3,70.9,70.9,65.6,60.7,81,56,33,29.89,29.81,11,4,0,0.00
2013-9-10,100.9,82.6,69.8,70.0,65.3,60.0,76,58,35,30.05,29.90,10,4,0,0.00
2013-9-11,93.0,77.1,69.6,73.2,70.8,66.5,99,83,51,30.14,30.06,10,2,0,0.13
2013-9-12,85.6,72.6,60.8,69.4,60.5,51.6,99,70,38,30.22,30.12,11,4,0,0.31
2013-9-13,83.1,66.8,52.7,55.9,52.2,49.4,99,64,34,30.25,30.09,7,2,0,0.00
2013-9-14,81.0,65.5,51.1,56.5,52.6,46.7,88,65,42,30.11,29.90,12,5,0,0.00
2013-9-15,68.9,64.1,60.1,65.6,59.8,54.3,98,87,64,30.23,29.86,12,4,0,0.69
2013-9-16,63.5,58.7,52.3,57.6,55.3,52.0,99,88,77,30.34,30.21,8,3,0,0.00
2013-9-17,79.3,64.7,57.7,69.8,62.6,57.3,99,94,72,30.22,29.90,11,5,0,0.22
2013-9-18,91.6,77.9,67.1,71.3,68.1,66.2,97,75,46,29.93,29.72,14,8,0,0.00
2013-9-19,95.9,75.0,61.0,71.8,66.1,53.3,95,76,44,30.01,29.75,13,5,0,0.80
2013-9-20,75.7,62.2,52.3,53.8,49.7,46.1,89,66,38,30.11,29.98,10,4,0,0.00
2013-9-21,81.1,63.0,45.5,54.0,49.8,45.0,99,67,33,30.06,29.88,7,3,0,0.00
2013-9-22,82.8,68.2,51.1,59.8,54.4,50.6,98,65,38,29.94,29.84,14,5,0,0.00
2013-9-24,77.0,67.1,58.3,58.9,57.7,56.6,96,73,53,29.90,29.83,12,4,0,0.00
2013-9-25,84.7,68.3,52.7,61.9,58.7,52.4,99,75,44,29.93,29.76,10,4,0,0.00
2013-9-26,88.2,73.2,59.0,62.1,59.9,57.9,98,67,38,29.84,29.76,16,8,0,0.00
2013-9-27,88.9,76.8,68.7,63.5,60.8,58.1,75,60,39,29.90,29.79,18,8,0,0.00
2013-9-28,75.4,64.5,50.9,65.5,53.9,44.6,99,71,39,30.09,29.69,14,5,0,0.17
2013-9-29,81.0,62.1,43.3,51.0,45.5,41.9,98,60,28,30.10,29.92,12,4,0,0.00
2013-9-30,84.2,64.8,49.3,55.1,50.7,47.6,94,65,33,29.95,29.74,11,6,0,0.00
2013-10-1,90.9,70.9,53.1,60.5,56.0,50.6,96,63,35,29.96,29.80,7,2,0,0.00
2013-10-2,88.5,73.5,56.5,68.1,62.8,56.2,99,72,45,29.98,29.84,14,4,0,0.00
2013-10-3,83.1,71.2,60.8,69.9,65.6,60.4,99,84,63,29.89,29.71,17,5,0,0.92
2013-10-4,86.4,70.8,56.1,73.7,63.9,44.7,99,81,56,29.92,29.65,14,5,0,0.10
2013-10-5,62.8,51.0,41.4,45.0,36.2,33.8,78,58,38,29.99,29.87,9,4,0,0.00
2013-10-6,51.3,47.0,42.6,46.5,42.7,36.0,99,85,67,30.03,29.81,12,4,0,0.13
2013-10-7,82.9,59.7,38.8,48.3,41.2,37.4,97,57,25,30.13,30.03,7,3,0,0.00
2013-10-8,79.2,63.2,46.4,48.4,44.9,41.8,84,54,31,30.05,29.94,14,7,0,0.00
2013-10-9,80.4,63.9,51.8,53.8,50.0,46.9,88,63,39,30.05,29.96,14,6,0,0.00
2013-10-10,81.9,66.4,52.0,57.7,52.6,47.9,87,63,42,30.02,29.82,16,7,0,0.00
2013-10-11,82.9,67.8,55.4,60.7,52.1,38.4,82,60,28,29.91,29.66,16,7,0,0.00
2013-10-12,75.7,57.8,42.8,43.5,37.5,31.9,89,51,22,30.29,29.92,7,3,0,0.00
2013-10-13,75.2,56.3,38.3,42.8,37.3,32.8,99,54,25,30.45,30.30,10,3,0,0.00
2013-10-14,67.6,55.6,48.7,59.2,46.3,34.7,99,73,49,30.32,29.76,23,7,0,1.20
2013-10-15,59.4,50.6,41.4,57.4,42.3,38.5,99,75,48,30.10,29.80,10,4,0,0.00
2013-10-16,62.8,50.3,44.1,41.7,37.8,31.4,88,64,38,30.10,29.98,10,4,0,0.00
2013-10-17,72.3,51.3,38.5,44.7,39.0,34.4,94,66,32,30.06,29.90,13,4,0,0.00
2013-10-18,53.1,41.9,35.2,37.9,34.0,30.2,96,75,45,30.07,27.80,7,3,0,0.00
2013-10-19,69.8,48.8,32.5,39.1,35.2,32.3,99,66,28,29.99,27.73,9,4,0,0.00
2013-10-20,68.9,53.2,42.6,45.5,39.8,36.7,83,62,38,30.02,29.75,8,4,0,0.00
2013-10-21,65.8,46.6,30.4,38.5,34.2,29.9,99,66,29,30.15,29.97,7,3,0,0.00
2013-10-22,54.3,44.9,34.7,45.2,37.8,31.3,95,77,52,30.14,29.88,20,5,0,0.00
2013-10-23,55.0,39.7,28.4,39.9,34.1,28.2,99,83,45,30.24,30.06,8,2,0,0.00
2013-10-24,52.7,41.0,30.9,35.3,28.4,21.8,93,64,34,30.44,30.23,12,4,0,0.00
2013-10-25,61.5,44.0,28.6,32.9,27.8,22.9,80,55,33,30.46,30.10,9,4,0,0.00
2013-10-26,58.5,45.7,35.6,38.4,32.8,27.1,86,62,41,30.24,30.05,12,5,0,0.00
2013-10-27,69.6,48.7,29.8,36.9,31.8,25.6,84,56,28,30.18,29.87,13,5,0,0.00
2013-10-28,62.2,48.6,34.5,40.1,36.1,31.6,90,64,42,30.21,29.96,14,4,0,0.00
2013-10-29,58.6,50.8,43.9,57.3,49.5,39.0,99,96,68,30.13,29.93,11,4,0,0.16
2013-10-30,59.9,53.6,44.4,58.8,53.2,44.1,99,99,95,29.95,29.72,9,3,0,0.37
2013-10-31,63.7,47.0,39.9,48.0,42.4,36.6,99,86,54,29.76,29.51,7,2,0,0.00
2013-11-1,62.6,47.3,37.8,44.3,38.9,35.8,93,75,41,30.00,29.61,14,4,0,0.01
2013-11-2,61.5,47.1,36.7,39.7,35.4,32.4,88,66,37,30.23,30.00,11,5,0,0.00
2013-11-3,57.7,49.2,38.1,39.2,35.3,32.2,79,60,42,30.13,29.80,21,10,0,0.00
2013-11-4,65.8,52.5,45.0,47.7,41.6,37.8,82,67,49,30.14,29.81,10,5,0,0.00
2013-11-5,56.8,48.2,35.6,56.5,46.4,35.3,99,94,80,30.13,29.78,12,6,0,0.48
2013-11-6,51.8,38.4,31.8,36.6,33.9,30.8,99,85,56,30.32,30.02,11,4,0,0.00
2013-11-7,53.6,39.6,28.9,34.3,27.6,22.6,99,67,32,30.44,30.30,12,3,0,0.00
2013-11-8,68.7,56.1,33.1,36.7,34.3,24.0,71,46,26,30.33,29.78,21,8,0,0.00
2013-11-9,64.6,51.4,39.9,37.5,34.8,31.6,83,56,34,30.36,29.95,9,4,0,0.00
2013-11-10,54.5,43.4,31.8,35.8,30.8,28.4,87,64,37,30.44,30.20,10,4,0,0.00
2013-11-11,45.3,32.9,23.0,40.0,23.8,12.3,88,69,56,30.74,30.15,23,14,0,0.00
2013-11-12,39.0,21.8,10.0,12.8,9.8,6.3,91,62,28,30.93,30.62,13,4,0,0.00
2013-11-13,53.1,33.6,19.0,25.7,17.3,10.1,71,54,33,30.64,30.16,14,8,0,0.00
2013-11-14,60.4,47.4,35.2,30.6,27.8,21.1,70,48,30,30.03,29.91,9,3,0,0.00
2013-11-15,58.8,44.2,29.8,44.0,34.7,27.4,92,71,45,29.91,29.63,14,6,0,0.00
2013-11-16,72.0,57.1,47.5,55.6,43.5,29.9,95,65,31,29.62,29.31,20,7,0,0.00
2013-11-17,64.9,52.3,37.8,53.3,38.2,33.7,99,62,32,30.08,29.24,17,5,0,0.00
2013-11-18,63.0,43.0,27.0,33.8,28.0,24.1,99,61,27,30.29,30.08,8,3,0,0.00
2013-11-19,64.8,49.1,34.7,31.2,27.3,23.6,69,45,25,30.22,29.91,17,9,0,0.00
2013-11-20,55.9,46.5,38.1,38.4,34.5,26.8,92,65,39,29.93,29.77,18,8,0,0.00
2013-11-21,37.9,30.4,22.3,36.5,28.6,20.3,98,93,87,30.55,29.93,18,9,0,0.00
2013-11-22,26.6,20.6,15.3,20.8,16.4,12.9,94,84,69,30.72,30.55,14,6,0,0.00
2013-11-23,22.6,17.2,9.5,15.3,8.7,3.6,83,70,51,30.89,30.64,17,6,0,0.00
2013-11-24,28.8,19.2,8.4,15.6,10.5,5.2,88,70,50,30.78,30.26,12,6,0,0.00
2013-11-25,46.0,33.3,25.5,29.4,22.9,15.0,83,66,49,30.26,30.13,11,4,0,0.00
2013-11-26,35.6,27.3,15.6,25.7,16.9,7.9,86,66,42,30.44,30.20,20,8,0,0.00
2013-11-27,33.4,23.4,9.1,18.6,11.6,6.3,89,62,39,30.44,30.07,13,4,0,0.00
2013-11-28,36.1,27.1,18.3,20.6,18.2,15.3,88,69,51,30.51,30.09,15,5,0,0.00
2013-11-29,48.2,31.9,15.4,29.2,22.6,13.7,96,71,46,30.50,30.17,14,5,0,0.00
2013-11-30,61.5,40.9,27.7,34.7,29.3,22.8,89,66,36,30.17,30.06,6,2,0,0.00
2013-12-1,55.8,38.1,25.7,31.2,28.5,24.7,96,71,39,30.16,29.87,5,2,0,0.00
2013-12-2,65.7,45.1,29.7,37.1,33.7,27.4,96,69,33,29.86,29.52,7,3,0,0.00
2013-12-3,54.9,40.7,33.8,39.5,36.1,33.2,99,85,53,29.65,29.47,11,4,0,0.00
2013-12-4,37.0,24.7,16.0,36.5,21.9,9.2,99,89,73,30.09,29.59,14,7,0,0.00
2013-12-5,16.9,12.9,7.7,9.9,2.7,-4.6,77,64,50,30.45,30.08,17,8,0,0.00
2013-12-6,13.3,7.2,1.2,-2.6,-4.4,-7.6,78,59,47,30.72,30.45,14,6,0,0.00
2013-12-7,16.7,7.8,-4.4,1.4,-2.9,-7.7,86,63,44,30.77,30.41,9,4,0,0.00
2013-12-8,25.3,15.9,8.8,17.0,11.3,1.2,95,82,55,30.41,30.00,11,4,0,0.00
2013-12-9,21.0,5.7,-2.6,6.3,-1.2,-6.0,95,74,41,30.39,30.15,11,4,0,0.00
2013-12-10,35.6,22.6,11.7,19.0,12.2,3.5,81,65,39,30.30,30.12,13,5,0,0.00
2013-12-11,27.0,9.8,2.7,22.3,0.0,-3.6,84,65,45,30.68,30.31,20,6,0,0.00
2013-12-12,39.0,19.9,4.6,21.1,11.9,-1.5,94,72,44,30.53,30.10,9,4,0,0.00
2013-12-13,42.3,27.8,16.0,29.2,23.0,14.8,99,83,57,30.10,29.86,12,4,0,0.00
2013-12-14,25.0,19.8,13.5,22.8,15.9,12.4,97,85,71,30.23,30.03,16,7,0,0.00
2013-12-15,39.4,23.2,13.8,25.3,19.3,12.3,99,87,53,30.19,29.96,5,2,0,0.00
2013-12-16,49.5,30.3,13.8,32.8,24.4,13.1,99,81,52,30.15,29.96,9,3,0,0.00
2013-12-17,44.1,33.8,23.9,29.7,25.4,16.9,99,75,37,30.31,30.16,11,5,0,0.00
2013-12-18,61.0,44.8,29.7,32.4,27.8,20.4,74,53,34,30.10,29.70,15,6,0,0.00
2013-12-19,40.8,34.0,23.7,31.8,29.0,22.7,96,82,70,29.83,29.68,18,10,0,0.00
2013-12-20,23.5,17.4,14.2,22.5,15.0,12.6,96,90,86,29.98,29.83,18,7,0,0.00
2013-12-21,24.3,20.9,17.8,20.9,17.4,14.3,98,86,79,29.92,29.75,17,7,0,0.00
2013-12-22,23.5,17.3,6.8,20.8,14.5,3.0,99,89,74,30.40,29.83,14,6,0,0.00
2013-12-23,13.8,6.3,-0.8,4.1,-0.7,-4.9,87,73,53,30.63,30.40,11,5,0,0.00
2013-12-24,25.2,13.2,-2.7,24.7,8.3,-5.1,98,81,66,30.57,30.17,13,6,0,0.00
2013-12-25,47.3,30.6,19.0,29.6,23.4,17.7,99,77,47,30.34,30.23,9,4,0,0.06
2013-12-26,49.1,32.3,21.7,29.0,23.7,18.4,91,72,44,30.28,30.14,10,4,0,0.00
2013-12-27,52.0,36.4,21.9,31.8,25.9,19.4,90,68,42,30.29,30.12,10,4,0,0.00
2013-12-28,48.7,38.0,20.8,32.6,28.2,14.5,81,68,53,30.10,29.82,22,10,0,0.00
2013-12-29,19.2,10.5,3.7,12.3,-3.1,-8.9,76,55,35,30.39,30.11,19,9,0,0.00
2013-12-30,31.6,17.5,2.3,23.6,6.3,-9.1,77,61,44,30.32,30.09,11,6,0,0.00
2013-12-31,48.9,19.4,7.7,29.8,13.1,5.9,94,78,45,30.31,29.97,14,5,0,0.00
2014-1-1,13.3,9.3,1.6,9.5,6.0,-1.1,89,86,81,30.40,30.11,19,10,0,0.00
2014-1-2,14.0,3.4,-3.5,5.0,-1.1,-6.7,90,82,64,30.49,30.38,9,4,0,0.00